| time (UTC) | temp C | wind direction | speed KPH | gust KPH | rain 1hr cm | rain 24hr cm | rain mn cm | humidity % | barometer mb |
| 20260503210228 | 24 | 91 | 12.9 | 22.5 | 0.00 | 0.30 | 0.15 | 70 | 1015.6 |
| 20260503204659 | 25 | 88 | 11.3 | 19.3 | 0.00 | 0.33 | 0.15 | 68 | 1015.7 |
| 20260503204158 | 25 | 95 | 16.1 | 22.5 | 0.00 | 0.33 | 0.15 | 70 | 1015.7 |
| 20260503203658 | 25 | 96 | 12.9 | 22.5 | 0.00 | 0.33 | 0.15 | 70 | 1015.7 |
| 20260503203158 | 25 | 88 | 6.4 | 22.5 | 0.00 | 0.33 | 0.15 | 71 | 1015.7 |
| 20260503202628 | 25 | 80 | 4.8 | 17.7 | 0.00 | 0.33 | 0.15 | 69 | 1015.7 |
| 20260503202128 | 24 | 82 | 9.7 | 20.9 | 0.00 | 0.33 | 0.15 | 69 | 1015.9 |
| 20260503201628 | 25 | 90 | 11.3 | 24.1 | 0.00 | 0.33 | 0.15 | 70 | 1016.0 |
| 20260503201128 | 25 | 85 | 8.0 | 24.1 | 0.00 | 0.33 | 0.15 | 68 | 1016.0 |
| 20260503200558 | 25 | 65 | 4.8 | 11.3 | 0.00 | 0.33 | 0.15 | 71 | 1016.0 |
| 20260503200058 | 25 | 73 | 4.8 | 17.7 | 0.00 | 0.36 | 0.15 | 69 | 1016.1 |
| 20260503195558 | 25 | 82 | 4.8 | 17.7 | 0.00 | 0.36 | 0.15 | 68 | 1016.2 |
| 20260503195028 | 25 | 84 | 4.8 | 17.7 | 0.00 | 0.36 | 0.15 | 71 | 1016.3 |
| 20260503194528 | 24 | 80 | 4.8 | 19.3 | 0.00 | 0.36 | 0.15 | 70 | 1016.4 |
| 20260503193958 | 24 | 79 | 6.4 | 19.3 | 0.00 | 0.36 | 0.15 | 71 | 1016.5 |
| 20260503192929 | 24 | 53 | 3.2 | 9.7 | 0.00 | 0.36 | 0.15 | 70 | 1016.7 |
| 20260503192429 | 24 | 76 | 4.8 | 17.7 | 0.00 | 0.36 | 0.15 | 72 | 1016.9 |
| 20260503191928 | 24 | 76 | 6.4 | 17.7 | 0.00 | 0.36 | 0.15 | 71 | 1016.8 |
| 20260503191429 | 24 | 75 | 6.4 | 16.1 | 0.00 | 0.36 | 0.15 | 70 | 1016.8 |
| 20260503190858 | 24 | 75 | 4.8 | 16.1 | 0.00 | 0.36 | 0.15 | 72 | 1017.0 |
| 20260503190358 | 24 | 53 | 3.2 | 9.7 | 0.00 | 0.36 | 0.15 | 72 | 1017.0 |
| 20260503185358 | 24 | 89 | 9.7 | 19.3 | 0.00 | 0.36 | 0.15 | 73 | 1017.2 |
| 20260503184828 | 24 | 88 | 8.0 | 19.3 | 0.00 | 0.36 | 0.15 | 73 | 1017.3 |
| 20260503184328 | 24 | 89 | 8.0 | 19.3 | 0.00 | 0.36 | 0.15 | 73 | 1017.3 |
| 20260503183228 | 24 | 88 | 8.0 | 22.5 | 0.00 | 0.36 | 0.15 | 73 | 1017.5 |
| 20260503182658 | 24 | 89 | 6.4 | 17.7 | 0.00 | 0.36 | 0.15 | 73 | 1017.5 |
| 20260503182158 | 23 | 83 | 8.0 | 22.5 | 0.00 | 0.36 | 0.15 | 74 | 1017.6 |
| 20260503181128 | 23 | 93 | 12.9 | 27.4 | 0.00 | 0.36 | 0.15 | 74 | 1017.6 |
| 20260503175558 | 23 | 84 | 8.0 | 20.9 | 0.00 | 0.36 | 0.15 | 74 | 1018.0 |
| 20260503174458 | 23 | 76 | 6.4 | 14.5 | 0.00 | 0.36 | 0.15 | 74 | 1018.0 |
| 20260503173958 | 23 | 57 | 4.8 | 14.5 | 0.00 | 0.36 | 0.15 | 77 | 1018.1 |
| 20260503172858 | 23 | 76 | 8.0 | 22.5 | 0.00 | 0.36 | 0.15 | 76 | 1018.0 |
| 20260503172358 | 23 | 77 | 8.0 | 22.5 | 0.00 | 0.36 | 0.15 | 78 | 1018.0 |
| 20260503171258 | 23 | 83 | 9.7 | 29.0 | 0.00 | 0.36 | 0.15 | 76 | 1018.0 |
| 20260503170758 | 23 | 81 | 8.0 | 24.1 | 0.00 | 0.36 | 0.15 | 76 | 1018.2 |
| 20260503170228 | 23 | 70 | 6.4 | 24.1 | 0.00 | 0.36 | 0.15 | 76 | 1018.2 |
| 20260503150529 | 20 | 32 | 3.2 | 6.4 | 0.00 | 0.36 | 0.15 | 88 | 1018.8 |
| 20260503130428 | 18 | 21 | 4.8 | 9.7 | 0.00 | 0.36 | 0.15 | 93 | 1017.3 |
| 20260503110428 | 17 | 19 | 3.2 | 8.0 | 0.00 | 0.36 | 0.15 | 98 | 1016.0 |
| 20260503081558 | 18 | 34 | 3.2 | 6.4 | 0.03 | 0.30 | 0.10 | 99 | 1014.8 |
| 20260503081029 | 18 | 17 | 3.2 | 8.0 | 0.03 | 0.30 | 0.10 | 99 | 1015.0 |
| 20260503080528 | 18 | 14 | 3.2 | 8.0 | 0.03 | 0.30 | 0.10 | 99 | 1015.0 |
| 20260503072829 | 18 | 11 | 4.8 | 8.0 | 0.00 | 0.28 | 0.08 | 98 | 1014.7 |
| 20260503072328 | 18 | 10 | 3.2 | 6.4 | 0.00 | 0.28 | 0.08 | 98 | 1014.9 |
| 20260503071758 | 18 | 13 | 3.2 | 6.4 | 0.00 | 0.28 | 0.08 | 98 | 1014.9 |
| 20260503071258 | 18 | 20 | 3.2 | 6.4 | 0.03 | 0.28 | 0.08 | 98 | 1014.9 |
| 20260503070728 | 18 | 25 | 3.2 | 6.4 | 0.03 | 0.28 | 0.08 | 98 | 1014.9 |
| 20260503070158 | 18 | 31 | 3.2 | 6.4 | 0.05 | 0.28 | 0.08 | 98 | 1014.9 |
| 20260503054828 | 20 | 359 | 4.8 | 11.3 | 0.03 | 0.23 | 0.03 | 97 | 1014.6 |
| 20260503054328 | 20 | 4 | 3.2 | 11.3 | 0.03 | 0.23 | 0.03 | 98 | 1014.7 |
| 20260503053828 | 21 | 16 | 0.0 | 6.4 | 0.03 | 0.23 | 0.03 | 99 | 1014.8 |
| 20260503053328 | 21 | 222 | 0.0 | 4.8 | 0.03 | 0.23 | 0.03 | 99 | 1014.8 |
| 20260503052828 | 21 | 231 | 1.6 | 4.8 | 0.03 | 0.23 | 0.03 | 99 | 1014.8 |
| 20260503051758 | 21 | 236 | 1.6 | 4.8 | 0.03 | 0.23 | 0.03 | 99 | 1014.8 |
| 20260503051258 | 21 | 231 | 1.6 | 4.8 | 0.03 | 0.23 | 0.03 | 99 | 1014.7 |
| 20260503050728 | 21 | 194 | 1.6 | 6.4 | 0.03 | 0.23 | 0.03 | 99 | 1014.8 |
| 20260503050158 | 21 | 219 | 3.2 | 8.0 | 0.03 | 0.23 | 0.03 | 99 | 1014.7 |
| 20260503045658 | 21 | 241 | 3.2 | 8.0 | 0.00 | 0.20 | 0.00 | 99 | 1015.0 |
| 20260503045128 | 21 | 247 | 3.2 | 9.7 | 0.00 | 0.20 | 0.00 | 99 | 1015.0 |
| 20260503044628 | 21 | 242 | 4.8 | 9.7 | 0.03 | 0.20 | 0.00 | 99 | 1015.0 |
| 20260503044101 | 21 | 238 | 4.8 | 8.0 | 0.03 | 0.20 | 0.00 | 99 | 1014.9 |
| 20260503043528 | 21 | 240 | 4.8 | 11.3 | 0.03 | 0.20 | 0.00 | 99 | 1014.9 |
| 20260503041928 | 21 | 236 | 4.8 | 11.3 | 0.03 | 0.20 | 0.00 | 99 | 1014.7 |
| 20260503041428 | 21 | 241 | 4.8 | 11.3 | 0.05 | 0.20 | 0.00 | 99 | 1014.7 |
| 20260503040428 | 21 | 241 | 4.8 | 8.0 | 0.05 | 0.20 | 0.00 | 99 | 1014.4 |
| 20260503035928 | 21 | 238 | 3.2 | 9.7 | 0.05 | 0.20 | 0.20 | 99 | 1014.1 |
| 20260503035428 | 21 | 236 | 3.2 | 9.7 | 0.05 | 0.20 | 0.20 | 98 | 1013.9 |
| 20260503034928 | 21 | 235 | 3.2 | 6.4 | 0.05 | 0.20 | 0.20 | 98 | 1013.8 |
| 20260503034358 | 21 | 258 | 1.6 | 4.8 | 0.03 | 0.18 | 0.18 | 98 | 1013.8 |
| 20260503033828 | 21 | 290 | 1.6 | 3.2 | 0.03 | 0.18 | 0.18 | 98 | 1013.7 |
| 20260503033328 | 21 | 269 | 1.6 | 3.2 | 0.03 | 0.18 | 0.18 | 98 | 1013.7 |
| 20260503032258 | 21 | 257 | 3.2 | 6.4 | 0.03 | 0.18 | 0.18 | 97 | 1013.4 |
| 20260503031728 | 21 | 261 | 3.2 | 6.4 | 0.03 | 0.18 | 0.18 | 97 | 1013.4 |
| 20260503031228 | 21 | 259 | 3.2 | 6.4 | 0.00 | 0.15 | 0.15 | 96 | 1013.6 |
| 20260503030728 | 21 | 255 | 3.2 | 6.4 | 0.00 | 0.15 | 0.15 | 96 | 1013.6 |
| 20260503030158 | 21 | 251 | 3.2 | 6.4 | 0.00 | 0.15 | 0.15 | 96 | 1013.6 |
| 20260503025659 | 21 | 249 | 3.2 | 8.0 | 0.00 | 0.15 | 0.15 | 96 | 1013.6 |
| 20260503025127 | 21 | 247 | 3.2 | 8.0 | 0.00 | 0.15 | 0.15 | 96 | 1013.5 |
| 20260503024628 | 21 | 250 | 3.2 | 6.4 | 0.00 | 0.15 | 0.15 | 96 | 1013.4 |
| 20260503023558 | 21 | 261 | 3.2 | 6.4 | 0.00 | 0.15 | 0.15 | 96 | 1013.4 |
| 20260503023058 | 21 | 263 | 3.2 | 4.8 | 0.00 | 0.15 | 0.15 | 96 | 1013.2 |
| 20260503022528 | 21 | 261 | 3.2 | 8.0 | 0.00 | 0.15 | 0.15 | 96 | 1013.0 |
| 20260503022028 | 21 | 259 | 3.2 | 8.0 | 0.00 | 0.15 | 0.15 | 96 | 1013.0 |
| 20260503021458 | 21 | 254 | 3.2 | 6.4 | 0.00 | 0.15 | 0.15 | 96 | 1012.9 |
| 20260503020958 | 21 | 245 | 3.2 | 6.4 | 0.00 | 0.15 | 0.15 | 96 | 1012.8 |
| 20260503020428 | 21 | 251 | 3.2 | 6.4 | 0.00 | 0.15 | 0.15 | 96 | 1012.8 |
| 20260503015858 | 21 | 264 | 1.6 | 6.4 | 0.00 | 0.15 | 0.15 | 97 | 1012.6 |
| 20260503015358 | 21 | 266 | 3.2 | 6.4 | 0.00 | 0.15 | 0.15 | 97 | 1012.5 |
| 20260503014357 | 21 | 257 | 3.2 | 6.4 | 0.00 | 0.15 | 0.15 | 97 | 1012.8 |
| 20260503013858 | 21 | 252 | 3.2 | 6.4 | 0.00 | 0.15 | 0.15 | 98 | 1012.5 |
| 20260503013357 | 21 | 249 | 3.2 | 6.4 | 0.00 | 0.15 | 0.15 | 98 | 1012.4 |
| 20260503012828 | 21 | 249 | 3.2 | 11.3 | 0.00 | 0.15 | 0.15 | 98 | 1012.4 |
| 20260503012258 | 21 | 245 | 3.2 | 12.9 | 0.00 | 0.15 | 0.15 | 98 | 1012.3 |
| 20260503011758 | 21 | 242 | 4.8 | 14.5 | 0.00 | 0.15 | 0.15 | 98 | 1012.5 |
| 20260503011228 | 21 | 240 | 4.8 | 14.5 | 0.00 | 0.15 | 0.15 | 98 | 1012.3 |
| 20260503010658 | 21 | 242 | 4.8 | 11.3 | 0.00 | 0.15 | 0.15 | 98 | 1012.2 |
| 20260503010128 | 21 | 241 | 4.8 | 11.3 | 0.00 | 0.15 | 0.15 | 98 | 1012.3 |
| 20260503005558 | 21 | 236 | 1.6 | 11.3 | 0.00 | 0.15 | 0.15 | 98 | 1012.1 |
| 20260503004458 | 21 | 283 | 0.0 | 1.6 | 0.00 | 0.15 | 0.15 | 98 | 1010.7 |
| 20260503003358 | 21 | 283 | 0.0 | 3.2 | 0.00 | 0.15 | 0.15 | 98 | 1011.1 |
| 20260503002858 | 21 | 277 | 1.6 | 6.4 | 0.00 | 0.15 | 0.15 | 98 | 1011.4 |
| 20260503002358 | 21 | 275 | 3.2 | 6.4 | 0.00 | 0.15 | 0.15 | 98 | 1011.5 |
| 20260503001828 | 21 | 274 | 1.6 | 4.8 | 0.00 | 0.15 | 0.15 | 98 | 1011.5 |
| 20260503001258 | 21 | 271 | 1.6 | 3.2 | 0.00 | 0.15 | 0.15 | 98 | 1011.3 |
| 20260503000758 | 21 | 258 | 1.6 | 3.2 | 0.00 | 0.15 | 0.15 | 98 | 1011.5 |
| 20260502235727 | 21 | 231 | 1.6 | 3.2 | 0.03 | 0.15 | 0.15 | 98 | 1011.0 |
| 20260502235157 | 21 | 261 | 1.6 | 3.2 | 0.03 | 0.15 | 0.15 | 98 | 1010.6 |
| 20260502234628 | 21 | 326 | 1.6 | 3.2 | 0.05 | 0.15 | 0.15 | 98 | 1010.7 |
| 20260502234128 | 21 | 5 | 1.6 | 4.8 | 0.05 | 0.15 | 0.15 | 98 | 1010.8 |
| 20260502233557 | 21 | 339 | 1.6 | 4.8 | 0.08 | 0.15 | 0.15 | 97 | 1010.6 |
| 20260502233027 | 21 | 263 | 3.2 | 11.3 | 0.08 | 0.15 | 0.15 | 97 | 1010.7 |
| 20260502232527 | 21 | 258 | 3.2 | 11.3 | 0.08 | 0.15 | 0.15 | 97 | 1011.0 |
| 20260502231958 | 21 | 251 | 4.8 | 11.3 | 0.08 | 0.15 | 0.15 | 97 | 1011.2 |
| 20260502230858 | 21 | 181 | 4.8 | 9.7 | 0.08 | 0.15 | 0.15 | 97 | 1010.3 |
| 20260502230359 | 21 | 182 | 3.2 | 9.7 | 0.08 | 0.15 | 0.15 | 97 | 1010.1 |
| 20260502225858 | 21 | 239 | 3.2 | 12.9 | 0.05 | 0.13 | 0.13 | 97 | 1010.5 |
| 20260502225327 | 21 | 240 | 3.2 | 12.9 | 0.05 | 0.13 | 0.13 | 96 | 1011.1 |
| 20260502224758 | 21 | 241 | 3.2 | 8.0 | 0.03 | 0.10 | 0.10 | 96 | 1011.5 |
| 20260502224228 | 21 | 250 | 3.2 | 11.3 | 0.03 | 0.10 | 0.10 | 96 | 1011.7 |
| 20260502223728 | 21 | 252 | 4.8 | 11.3 | 0.00 | 0.08 | 0.08 | 95 | 1011.7 |
| 20260502223228 | 21 | 238 | 4.8 | 12.9 | 0.00 | 0.08 | 0.08 | 95 | 1011.6 |
| 20260502222158 | 21 | 193 | 4.8 | 11.3 | 0.00 | 0.08 | 0.08 | 95 | 1010.7 |
| 20260502221627 | 21 | 191 | 4.8 | 12.9 | 0.00 | 0.08 | 0.08 | 95 | 1010.8 |
| 20260502221341 | 21 | 190 | 4.8 | 12.9 | 0.00 | 0.08 | 0.08 | 95 | 1010.9 |
| 20260502221128 | 21 | 190 | 4.8 | 12.9 | 0.00 | 0.08 | 0.08 | 95 | 1010.9 |
| 20260502220058 | 21 | 235 | 6.4 | 14.5 | 0.03 | 0.08 | 0.08 | 95 | 1011.2 |
| 20260502215528 | 21 | 239 | 4.8 | 14.5 | 0.03 | 0.08 | 0.08 | 95 | 1011.3 |
| 20260502215422 | 21 | 237 | 4.8 | 11.3 | 0.05 | 0.08 | 0.08 | 95 | 1011.2 |
| 20260502215027 | 21 | 237 | 4.8 | 11.3 | 0.05 | 0.08 | 0.08 | 95 | 1011.2 |
| 20260502214527 | 21 | 225 | 3.2 | 11.3 | 0.05 | 0.08 | 0.08 | 96 | 1011.0 |
| 20260502213957 | 21 | 236 | 3.2 | 6.4 | 0.05 | 0.08 | 0.08 | 95 | 1010.9 |
| 20260502213458 | 21 | 264 | 3.2 | 6.4 | 0.05 | 0.08 | 0.08 | 95 | 1011.1 |
| 20260502212958 | 21 | 270 | 4.8 | 12.9 | 0.05 | 0.08 | 0.08 | 95 | 1011.3 |
| 20260502211857 | 21 | 274 | 6.4 | 12.9 | 0.05 | 0.08 | 0.08 | 94 | 1011.3 |
| 20260502210827 | 21 | 272 | 4.8 | 19.3 | 0.05 | 0.08 | 0.08 | 94 | 1011.5 |